Location: Unspecified
(0.0000°N, 0.0000°E)
Time: 05:20:53
(UTC+00:00)

HST - Visible Passes

Search period start: 21 October 2014 00:00
Search period end: 31 October 2014 00:00
Orbit: 546 x 551 km, 28.5° (Epoch: 19 October)

Date Brightness Start Highest point End Pass type
(mag) Time Alt. Az. Time Alt. Az. Time Alt. Az.
21 Oct 3.6 03:34:33 13° NE 03:34:33 13° NE 03:35:25 10° ENE visible
21 Oct 0.8 05:10:16 10° WNW 05:14:27 89° NNE 05:18:37 10° ESE visible
21 Oct 3.3 18:50:23 10° NW 18:52:21 13° NNW 18:54:19 10° N visible
22 Oct 3.6 03:28:04 14° ENE 03:28:04 14° ENE 03:29:02 10° E visible
22 Oct 1.0 05:03:39 13° WNW 05:07:13 59° SSW 05:11:20 10° SE visible
23 Oct 3.7 03:21:34 14° E 03:21:34 14° E 03:22:19 10° E visible
23 Oct 1.6 04:57:07 16° W 04:59:59 39° SSW 05:03:54 10° SE visible
24 Oct 4.0 03:15:00 12° ESE 03:15:00 12° ESE 03:15:23 10° ESE visible
24 Oct 2.1 04:50:34 17° WSW 04:52:45 26° SSW 04:56:18 10° SSE visible
25 Oct 2.6 04:43:56 15° WSW 04:45:32 19° SSW 04:48:30 10° SSE visible
26 Oct 3.0 04:37:15 12° SW 04:38:20 13° SSW 04:40:20 10° S visible
